EXS7MU GCTS-EGCC

Flight info

Callsign EXS7MU
Flight time N/A
Altitude 34000
Route KONBA1W KONBA UN866 BEXAL DCT TERVA DCT AGADO DCT KORUL DCT EBOMO DCT RUSIB DCT NOZHU DCT SHIRI DCT TOJAQ DCT EPACE DCT ACCOP DCT MOCQO P16 AXCIS AXCIS1M
Aircraft A321/M-SDE3FGHIRWY/LB1

Departure

Time 2026-05-05 17:02
Airport Tenerife Sur Airport (GCTS)

Arrival

Time N/A
Airport Manchester Airport (EGCC)
Time Latitude Longitude Altitude Speed Heading
2026-05-05 16:30 28.04589 -16.57646 216 ft 0 kts 337°
2026-05-05 16:47 28.04588 -16.57646 214 ft 0 kts 337°
2026-05-05 16:51 28.04589 -16.57646 215 ft 0 kts 337°
2026-05-05 16:51 28.04591 -16.57647 215 ft 0 kts 338°
2026-05-05 16:51 28.04596 -16.57650 222 ft 2 kts 338°
2026-05-05 16:52 28.04604 -16.57653 223 ft 2 kts 338°
2026-05-05 16:52 28.04615 -16.57658 223 ft 1 kts 337°
2026-05-05 16:52 28.04630 -16.57686 221 ft 6 kts 280°
2026-05-05 16:52 28.04604 -16.57721 217 ft 9 kts 195°
2026-05-05 16:53 28.04549 -16.57706 211 ft 6 kts 161°
2026-05-05 16:53 28.04489 -16.57711 213 ft 11 kts 220°
2026-05-05 16:53 28.04463 -16.57767 211 ft 5 kts 247°
2026-05-05 16:53 28.04450 -16.57803 205 ft 5 kts 248°
2026-05-05 16:54 28.04427 -16.57867 209 ft 13 kts 249°
2026-05-05 16:54 28.04394 -16.57967 202 ft 14 kts 248°
2026-05-05 16:54 28.04360 -16.58066 205 ft 13 kts 248°
2026-05-05 16:54 28.04323 -16.58150 207 ft 11 kts 243°
2026-05-05 16:55 28.04294 -16.58226 204 ft 10 kts 248°
2026-05-05 16:55 28.04268 -16.58299 205 ft 10 kts 248°
2026-05-05 16:55 28.04233 -16.58399 209 ft 17 kts 249°
2026-05-05 16:55 28.04198 -16.58499 212 ft 10 kts 250°
2026-05-05 16:56 28.04182 -16.58567 205 ft 10 kts 252°
2026-05-05 16:56 28.04147 -16.58672 202 ft 16 kts 249°
2026-05-05 16:56 28.04118 -16.58755 209 ft 9 kts 248°
2026-05-05 16:56 28.04095 -16.58819 206 ft 8 kts 248°
2026-05-05 16:57 28.04057 -16.58864 203 ft 10 kts 204°
2026-05-05 16:57 28.04005 -16.58853 200 ft 6 kts 140°
2026-05-05 16:57 28.03982 -16.58817 204 ft 8 kts 116°
2026-05-05 16:57 28.03961 -16.58749 207 ft 9 kts 103°
2026-05-05 16:58 28.03954 -16.58680 208 ft 9 kts 87°
2026-05-05 16:58 28.03961 -16.58648 210 ft 0 kts 70°
2026-05-05 16:59 28.03963 -16.58642 205 ft 0 kts 68°
2026-05-05 17:01 28.03976 -16.58603 209 ft 24 kts 68°
2026-05-05 17:02 28.04125 -16.58171 210 ft 91 kts 68°
2026-05-05 17:02 28.04426 -16.57311 218 ft 141 kts 68°
2026-05-05 17:02 28.04842 -16.56151 276 ft 173 kts 69°
2026-05-05 17:02 28.05265 -16.54899 831 ft 166 kts 71°
2026-05-05 17:03 28.05665 -16.53689 1426 ft 165 kts 67°
2026-05-05 17:03 28.06084 -16.52442 1839 ft 173 kts 66°
2026-05-05 17:03 28.06550 -16.51115 1991 ft 190 kts 66°
2026-05-05 17:03 28.07070 -16.49651 2106 ft 210 kts 65°
2026-05-05 17:04 28.07644 -16.48036 2243 ft 232 kts 66°
2026-05-05 17:04 28.08256 -16.46303 2640 ft 242 kts 66°
2026-05-05 17:04 28.08896 -16.44462 3020 ft 258 kts 68°
2026-05-05 17:04 28.09532 -16.42540 3700 ft 263 kts 68°
2026-05-05 17:05 28.10166 -16.40576 4374 ft 268 kts 69°
2026-05-05 17:05 28.10810 -16.38567 5014 ft 274 kts 69°
2026-05-05 17:05 28.11466 -16.36513 5634 ft 280 kts 69°
2026-05-05 17:05 28.12139 -16.34417 6259 ft 286 kts 69°
2026-05-05 17:06 28.12826 -16.32278 6838 ft 292 kts 69°
2026-05-05 17:06 28.13525 -16.30103 7428 ft 296 kts 69°
2026-05-05 17:06 28.14234 -16.27898 8056 ft 300 kts 69°
2026-05-05 17:06 28.15130 -16.25763 8640 ft 302 kts 52°
2026-05-05 17:07 28.16632 -16.24124 9244 ft 301 kts 28°
2026-05-05 17:07 28.18559 -16.23243 9855 ft 300 kts 11°
2026-05-05 17:07 28.20606 -16.22658 10260 ft 312 kts 10°
2026-05-05 17:07 28.22780 -16.22045 10379 ft 332 kts 10°
2026-05-05 17:08 28.25093 -16.21393 10512 ft 352 kts 11°
2026-05-05 17:08 28.27531 -16.20699 10661 ft 370 kts 11°
2026-05-05 17:08 28.30055 -16.19969 11040 ft 378 kts 11°
2026-05-05 17:08 28.32625 -16.19216 11555 ft 384 kts 11°
2026-05-05 17:09 28.35226 -16.18452 12072 ft 389 kts 11°
2026-05-05 17:09 28.37863 -16.17680 12607 ft 394 kts 10°
2026-05-05 17:09 28.40533 -16.16900 13121 ft 399 kts 10°
2026-05-05 17:09 28.43236 -16.16113 13639 ft 404 kts 10°
2026-05-05 17:10 28.45973 -16.15317 14119 ft 408 kts 10°
2026-05-05 17:10 28.48738 -16.14513 14602 ft 412 kts 10°
2026-05-05 17:10 28.51523 -16.13702 15095 ft 415 kts 10°
2026-05-05 17:10 28.54329 -16.12883 15591 ft 418 kts 10°
2026-05-05 17:11 28.57155 -16.12059 16082 ft 420 kts
2026-05-05 17:11 28.59995 -16.11231 16559 ft 423 kts
2026-05-05 17:11 28.62861 -16.10397 17022 ft 426 kts
2026-05-05 17:11 28.65741 -16.09554 17487 ft 429 kts 10°
2026-05-05 17:12 28.68643 -16.08703 17944 ft 432 kts 10°
2026-05-05 17:12 28.71565 -16.07850 18393 ft 435 kts 10°
2026-05-05 17:12 28.74507 -16.06990 18776 ft 438 kts
2026-05-05 17:12 28.77427 -16.06134 19166 ft 441 kts
2026-05-05 17:13 28.80404 -16.05260 19541 ft 444 kts
2026-05-05 17:13 28.83401 -16.04378 19921 ft 446 kts
2026-05-05 17:13 28.86419 -16.03491 20291 ft 449 kts
2026-05-05 17:13 28.89456 -16.02599 20669 ft 452 kts
2026-05-05 17:14 28.92507 -16.01703 21031 ft 454 kts
2026-05-05 17:14 28.95577 -16.00803 21410 ft 457 kts
2026-05-05 17:14 28.98667 -15.99898 21783 ft 460 kts
2026-05-05 17:14 29.01777 -15.98984 22151 ft 463 kts
2026-05-05 17:15 29.04900 -15.98063 22508 ft 465 kts
2026-05-05 17:15 29.08043 -15.97137 22876 ft 468 kts
2026-05-05 17:15 29.11206 -15.96205 23238 ft 471 kts
2026-05-05 17:15 29.14387 -15.95269 23597 ft 473 kts
2026-05-05 17:16 29.17580 -15.94326 23890 ft 476 kts
2026-05-05 17:16 29.20793 -15.93374 24188 ft 478 kts
2026-05-05 17:16 29.24018 -15.92417 24486 ft 480 kts
2026-05-05 17:16 29.27256 -15.91459 24780 ft 482 kts
2026-05-05 17:17 29.30511 -15.90500 25073 ft 484 kts
2026-05-05 17:17 29.33778 -15.89536 25358 ft 486 kts
2026-05-05 17:17 29.37061 -15.88566 25644 ft 488 kts
2026-05-05 17:17 29.40356 -15.87590 25913 ft 490 kts
2026-05-05 17:18 29.43661 -15.86607 26192 ft 492 kts
2026-05-05 17:18 29.45859 -15.85952 26378 ft 493 kts
2026-05-05 17:18 29.49190 -15.84959 26638 ft 495 kts
2026-05-05 17:18 29.52530 -15.83965 26905 ft 497 kts
2026-05-05 17:19 29.55886 -15.82967 27177 ft 499 kts
2026-05-05 17:19 29.59257 -15.81965 27448 ft 501 kts
2026-05-05 17:19 29.62632 -15.80958 27708 ft 503 kts
2026-05-05 17:19 29.66029 -15.79943 27965 ft 505 kts
2026-05-05 17:20 29.69435 -15.78925 28224 ft 506 kts
2026-05-05 17:20 29.72839 -15.77906 28575 ft 505 kts
2026-05-05 17:20 29.76235 -15.76889 28918 ft 504 kts
2026-05-05 17:20 29.79632 -15.75877 29265 ft 504 kts
2026-05-05 17:21 29.83023 -15.74866 29602 ft 503 kts
2026-05-05 17:21 29.86409 -15.73854 29943 ft 502 kts
2026-05-05 17:21 29.89787 -15.72839 30258 ft 502 kts
2026-05-05 17:22 29.96536 -15.70819 30795 ft 501 kts
2026-05-05 17:22 29.99909 -15.69807 31078 ft 500 kts
2026-05-05 17:22 30.03273 -15.68797 31344 ft 500 kts
2026-05-05 17:22 30.06635 -15.67787 31637 ft 499 kts
2026-05-05 17:23 30.10000 -15.66771 31919 ft 499 kts
2026-05-05 17:23 30.13356 -15.65756 32196 ft 499 kts
2026-05-05 17:23 30.16709 -15.64743 32470 ft 498 kts
2026-05-05 17:23 30.20065 -15.63731 32747 ft 498 kts
2026-05-05 17:24 30.23372 -15.62738 33019 ft 497 kts
2026-05-05 17:24 30.26719 -15.61735 33297 ft 497 kts
2026-05-05 17:24 30.30066 -15.60728 33575 ft 497 kts
2026-05-05 17:24 30.33406 -15.59719 33844 ft 496 kts
2026-05-05 17:25 30.36749 -15.58704 34033 ft 496 kts
2026-05-05 17:25 30.43388 -15.56688 34064 ft 491 kts
2026-05-05 17:26 30.49988 -15.54685 34066 ft 489 kts
2026-05-05 17:26 30.56565 -15.52682 34064 ft 488 kts
2026-05-05 17:27 30.63127 -15.50690 34068 ft 487 kts
2026-05-05 17:27 30.69674 -15.48703 34076 ft 486 kts
2026-05-05 17:28 30.76218 -15.46707 34086 ft 486 kts
2026-05-05 17:28 30.82743 -15.44708 34090 ft 485 kts
2026-05-05 17:29 30.89264 -15.42715 34095 ft 484 kts
2026-05-05 17:29 30.95767 -15.40730 34106 ft 483 kts
2026-05-05 17:30 31.02257 -15.38741 34097 ft 481 kts
2026-05-05 17:30 31.08732 -15.36751 34106 ft 481 kts
2026-05-05 17:31 31.15192 -15.34757 34106 ft 480 kts
2026-05-05 17:31 31.21596 -15.32787 34094 ft 479 kts
2026-05-05 17:32 31.28020 -15.30736 34093 ft 481 kts 14°
2026-05-05 17:32 31.34021 -15.27139 34096 ft 490 kts 30°
2026-05-05 17:33 31.39696 -15.22717 34096 ft 490 kts 30°
2026-05-05 17:33 31.45374 -15.18319 34101 ft 489 kts 30°
2026-05-05 17:34 31.51048 -15.13917 34098 ft 489 kts 30°
2026-05-05 17:34 31.56712 -15.09508 34103 ft 488 kts 30°
2026-05-05 17:35 31.62369 -15.05099 34104 ft 488 kts 30°
2026-05-05 17:35 31.68021 -15.00691 34107 ft 488 kts 30°
2026-05-05 17:36 31.73666 -14.96274 34105 ft 487 kts 30°
2026-05-05 17:36 31.79290 -14.91856 34142 ft 484 kts 31°
2026-05-05 17:36 31.82061 -14.89679 34073 ft 473 kts 31°
2026-05-05 17:37 31.84788 -14.87540 34085 ft 471 kts 30°
2026-05-05 17:37 31.90233 -14.83281 34083 ft 469 kts 30°
2026-05-05 17:38 31.95666 -14.79016 34091 ft 469 kts 31°
2026-05-05 17:38 32.01086 -14.74739 34092 ft 469 kts 31°
2026-05-05 17:39 32.06516 -14.70461 34097 ft 469 kts 31°
2026-05-05 17:39 32.11936 -14.66177 34102 ft 469 kts 31°
2026-05-05 17:40 32.17355 -14.61893 34106 ft 469 kts 31°
2026-05-05 17:40 32.22766 -14.57600 34104 ft 469 kts 31°
2026-05-05 17:41 32.28182 -14.53305 34107 ft 469 kts 31°
2026-05-05 17:41 32.33592 -14.49003 34109 ft 469 kts 31°
2026-05-05 17:42 32.39007 -14.44710 34111 ft 469 kts 31°
2026-05-05 17:42 32.44424 -14.40396 34104 ft 469 kts 31°